This is the latest recevied weather packets stored in our database for station/object TG5ALY-15. If no packets are shown the sender has not sent any weather packets the latest 10 day(s).
| Time | Temp. | Humidity | Pressure | Rain* | Wind** | Luminosity | Snow |
|---|---|---|---|---|---|---|---|
| 1778121166 | 16.11° C | 92% | 1030.8 hPa | 0 mm | - | 0 W/m² | - |
| 1778119962 | 16.11° C | 91% | 1030.8 hPa | 0 mm | - | 0 W/m² | - |
| 1778118757 | 16.11° C | 92% | 1030.4 hPa | 0 mm | - | 0 W/m² | - |
| 1778117555 | 16.11° C | 91% | 1030.8 hPa | 0 mm | - | 0 W/m² | - |
| 1778116354 | 16.67° C | 90% | 1030.4 hPa | 0 mm | - | 0 W/m² | - |
| 1778115148 | 17.22° C | 88% | 1029.9 hPa | 0 mm | - | 0 W/m² | - |
| 1778113946 | 17.22° C | 86% | 1029.9 hPa | 0 mm | - | 0 W/m² | - |
| 1778112744 | 17.78° C | 84% | 1029.5 hPa | 0 mm | - | 3 W/m² | - |
| 1778111540 | 18.89° C | 79% | 1029.2 hPa | 0 mm | - | 7 W/m² | - |
| 1778110341 | 19.44° C | 75% | 1028.7 hPa | 0 mm | - | 15 W/m² | - |
| 1778109140 | 19.44° C | 75% | 1028.7 hPa | 0 mm | - | 31 W/m² | - |
| 1778107938 | 20° C | 73% | 1028.7 hPa | 0 mm | - | 59 W/m² | - |
| 1778106736 | 22.78° C | 60% | 1028.3 hPa | 0 mm | - | 77 W/m² | - |
| 1778105531 | 22.22° C | 63% | 1027.9 hPa | 0 mm | - | 371 W/m² | - |
| 1778104326 | 21.67° C | 63% | 1028.3 hPa | 0 mm | - | 240 W/m² | - |
| 1778103122 | 20.56° C | 68% | 1028.3 hPa | 0 mm | - | 106 W/m² | - |
| 1778101918 | 21.11° C | 68% | 1028.3 hPa | 0 mm | - | 151 W/m² | - |
| 1778100716 | 22.78° C | 62% | 1028.3 hPa | 0 mm | - | 184 W/m² | - |
| 1778099511 | 22.78° C | 61% | 1028.3 hPa | 0 mm | - | 754 W/m² | - |
| 1778098310 | 23.89° C | 56% | 1028.3 hPa | 0 mm | - | 838 W/m² | - |
| 1778097109 | 24.44° C | 49% | 1028.7 hPa | 0 mm | - | 899 W/m² | - |
| 1778095903 | 25.56° C | 46% | 1029.2 hPa | 0 mm | - | 936 W/m² | - |
| 1778094701 | 25° C | 23% | 1029.2 hPa | 0 mm | - | 981 W/m² | - |
| 1778093500 | 25.56° C | 25% | 1029.5 hPa | 0 mm | - | 988 W/m² | - |
| 1778092299 | 24.44° C | 27% | 1029.9 hPa | 0 mm | - | 960 W/m² | - |
* Rain latest hour (hover to see other rain measurements)
** Current wind speed in m/s (hover to see current wind gust speed)